Flag for Brazil Weather past 2 weeks in São Luis, Maranhão, Brazil

Now
81 °F

Passing clouds.


Feels Like: 85 °F
Forecast: 78 / 87 °F
Wind: 5 mph from Southeast

Location: Sao Luiz Aeroporto

Current Time: May 27, 2015 at 9:48:15 PM

Latest Report: May 27, 2015 at 9:00 PM


Visibility: N/A

Pressure: 29.92 "Hg

Humidity: 79%

Dew point: 73 °F

Location of São LuisLocation

Historic Weather in São Luis — Graph

°F

São Luis temperature yesterday

Maximum temperature yesterday: 86 °F (at 1:00 PM)
Minimum temperature yesterday: 73 °F (at 2:00 AM)
Average temperature yesterday: 80 °F

Past Weeks' High & Low Weather Summary

 TemperatureHumidityPressure
High90 °F (May 13, 12:00 PM)100% (May 23, 3:00 PM)29.98 "Hg (May 23, 3:00 PM)
Low43 °F (May 23, 3:00 PM)20% (May 24, 11:00 PM)29.77 "Hg (May 14, 3:00 PM)
Average81 °F77%29.89 "Hg
* Reported May 12 9:00 PM — May 27 9:00 PM, São Luis, Weather by CustomWeather, © 2015

Note: Actual official high and low records may vary slightly from our data, if they occured in-between our weather recording intervals... More about our weather records

Advertising

São Luis weather history for previous 24 hours

 ConditionsComfort  
Time TempWeatherWind HumidityBarometerVisibility
9:00 PM
Wed, May 27
81 °FPassing clouds.5 mph79%29.92 "HgN/A
8:00 PM81 °FPassing clouds.7 mph79%29.92 "HgN/A
7:00 PM81 °FPassing clouds.5 mph79%29.89 "HgN/A
6:00 PM82 °FPassing clouds.5 mph74%29.89 "HgN/A
5:00 PM84 °FPartly sunny.13 mph66%29.86 "HgN/A
4:00 PM84 °FPartly sunny.10 mph70%29.86 "HgN/A
3:00 PM84 °FScattered showers. Scattered clouds.13 mph66%29.83 "Hg6 mi
2:00 PM86 °FScattered showers. Scattered clouds.15 mph66%29.86 "Hg6 mi
1:00 PM84 °FScattered showers. Scattered clouds.13 mph70%29.89 "Hg6 mi
12:00 PM84 °FScattered showers. Broken clouds.12 mph66%N/A6 mi
11:00 AM84 °FLight rain. Partly sunny.17 mph66%29.92 "Hg6 mi
10:00 AM84 °FScattered showers. Scattered clouds.14 mph70%N/A6 mi
9:00 AM84 °FPartly sunny.13 mph70%29.92 "HgN/A
8:00 AM84 °FScattered clouds.10 mph70%29.92 "HgN/A
7:00 AM81 °FPassing clouds.6 mph79%29.89 "HgN/A
6:00 AM79 °FPartly sunny.8 mph84%29.86 "HgN/A
5:00 AM79 °FPassing clouds.9 mph84%29.86 "HgN/A
4:00 AM79 °FPassing clouds.5 mph84%29.83 "HgN/A
3:00 AM81 °FPassing clouds.9 mph79%29.83 "HgN/A
2:00 AM79 °FPassing clouds.6 mph84%29.86 "HgN/A
1:00 AM79 °FPassing clouds.7 mph84%29.86 "HgN/A
12:00 AM79 °FPassing clouds.8 mph84%29.89 "HgN/A
11:00 PM
Tue, May 26
79 °FPassing clouds.6 mph84%29.89 "HgN/A
10:00 PM81 °FPassing clouds.6 mph79%29.92 "HgN/A
9:00 PM81 °FPassing clouds.7 mph79%29.89 "HgN/A
Weather by CustomWeather, © 2015

See weather overviewHow to use our weather pages